01.01.2023 00:15;619
01.01.2023 00:30;585
01.01.2023 00:45;581
01.01.2023 01:00;543
01.01.2023 01:15;526
01.01.2023 01:30;507
01.01.2023 01:45;489
01.01.2023 02:00;471
01.01.2023 02:15;463
01.01.2023 02:30;460
01.01.2023 02:45;450
01.01.2023 03:00;442
01.01.2023 03:15;440
01.01.2023 03:30;434
01.01.2023 03:45;430
01.01.2023 04:00;428
01.01.2023 04:15;431
01.01.2023 04:30;431
01.01.2023 04:45;433
01.01.2023 05:00;438
01.01.2023 05:15;436
01.01.2023 05:30;439
01.01.2023 05:45;444
01.01.2023 06:00;447
01.01.2023 06:15;459
01.01.2023 06:30;462
01.01.2023 06:45;469
01.01.2023 07:00;476
01.01.2023 07:15;497
01.01.2023 07:30;507
01.01.2023 07:45;526
01.01.2023 08:00;552
01.01.2023 08:15;589
01.01.2023 08:30;613
01.01.2023 08:45;642
01.01.2023 09:00;671
01.01.2023 09:15;715
01.01.2023 09:30;758
01.01.2023 09:45;802
01.01.2023 10:00;831
01.01.2023 10:15;844
01.01.2023 10:30;886
01.01.2023 10:45;922
01.01.2023 11:00;957
01.01.2023 11:15;972
01.01.2023 11:30;997
01.01.2023 11:45;1014
01.01.2023 12:00;1038
01.01.2023 12:15;1053
01.01.2023 12:30;1088
01.01.2023 12:45;1102
01.01.2023 13:00;1083
01.01.2023 13:15;1037
01.01.2023 13:30;1030
01.01.2023 13:45;1015
01.01.2023 14:00;1008
01.01.2023 14:15;975
01.01.2023 14:30;960
01.01.2023 14:45;951
01.01.2023 15:00;951
01.01.2023 15:15;941
01.01.2023 15:30;938
01.01.2023 15:45;949
01.01.2023 16:00;935
01.01.2023 16:15;945
01.01.2023 16:30;985
01.01.2023 16:45;1056
01.01.2023 17:00;1144
01.01.2023 17:15;1228
01.01.2023 17:30;1309
01.01.2023 17:45;1372
01.01.2023 18:00;1430
01.01.2023 18:15;1426
01.01.2023 18:30;1436
01.01.2023 18:45;1423
01.01.2023 19:00;1401
01.01.2023 19:15;1390
01.01.2023 19:30;1355
01.01.2023 19:45;1312
01.01.2023 20:00;1284
01.01.2023 20:15;1286
01.01.2023 20:30;1217
01.01.2023 20:45;1160
01.01.2023 21:00;1107
01.01.2023 21:15;1059
01.01.2023 21:30;1022
01.01.2023 21:45;971
01.01.2023 22:00;952
01.01.2023 22:15;944
01.01.2023 22:30;934
01.01.2023 22:45;886
01.01.2023 23:00;838
01.01.2023 23:15;803
01.01.2023 23:30;757
01.01.2023 23:45;717
02.01.2023 00:00;682
02.01.2023 00:15;652
02.01.2023 00:30;625
02.01.2023 00:45;596
02.01.2023 01:00;573
02.01.2023 01:15;577
02.01.2023 01:30;563
02.01.2023 01:45;562
02.01.2023 02:00;546
02.01.2023 02:15;550
02.01.2023 02:30;539
02.01.2023 02:45;535
02.01.2023 03:00;530
02.01.2023 03:15;538
02.01.2023 03:30;544
02.01.2023 03:45;551
02.01.2023 04:00;551
02.01.2023 04:15;549
02.01.2023 04:30;566
02.01.2023 04:45;604
02.01.2023 05:00;639
02.01.2023 05:15;697
02.01.2023 05:30;741
02.01.2023 05:45;823
02.01.2023 06:00;929
02.01.2023 06:15;1076
02.01.2023 06:30;1286
02.01.2023 06:45;1441
02.01.2023 07:00;1624
02.01.2023 07:15;1771
02.01.2023 07:30;1907
02.01.2023 07:45;2029
02.01.2023 08:00;2173
02.01.2023 08:15;2314
02.01.2023 08:30;2367
02.01.2023 08:45;2413
02.01.2023 09:00;2403
02.01.2023 09:15;2401
02.01.2023 09:30;2481
02.01.2023 09:45;2472
02.01.2023 10:00;2524
02.01.2023 10:15;2544
02.01.2023 10:30;2543
02.01.2023 10:45;2546
02.01.2023 11:00;2526
02.01.2023 11:15;2520
02.01.2023 11:30;2582
02.01.2023 11:45;2559
02.01.2023 12:00;2559
02.01.2023 12:15;2552
02.01.2023 12:30;2572
02.01.2023 12:45;2621
02.01.2023 13:00;2618
02.01.2023 13:15;2613
02.01.2023 13:30;2643
02.01.2023 13:45;2559
02.01.2023 14:00;2506
02.01.2023 14:15;2509
02.01.2023 14:30;2446
02.01.2023 14:45;2487
02.01.2023 15:00;2477
02.01.2023 15:15;2452
02.01.2023 15:30;2421
02.01.2023 15:45;2388
02.01.2023 16:00;2374
02.01.2023 16:15;2326
02.01.2023 16:30;2321
02.01.2023 16:45;2354
02.01.2023 17:00;2438
02.01.2023 17:15;2529
02.01.2023 17:30;2591
02.01.2023 17:45;2595
02.01.2023 18:00;2589
02.01.2023 18:15;2617
02.01.2023 18:30;2632
02.01.2023 18:45;2613
02.01.2023 19:00;2556
02.01.2023 19:15;2517
02.01.2023 19:30;2457
02.01.2023 19:45;2376
02.01.2023 20:00;2322
02.01.2023 20:15;2224
02.01.2023 20:30;2067
02.01.2023 20:45;1924
02.01.2023 21:00;1844
02.01.2023 21:15;1777
02.01.2023 21:30;1665
02.01.2023 21:45;1544
02.01.2023 22:00;1422
02.01.2023 22:15;1381
02.01.2023 22:30;1288
02.01.2023 22:45;1169
02.01.2023 23:00;1102
02.01.2023 23:15;1025
02.01.2023 23:30;948
02.01.2023 23:45;908
03.01.2023 00:00;872
03.01.2023 00:15;835
03.01.2023 00:30;799
03.01.2023 00:45;719
03.01.2023 01:00;685
03.01.2023 01:15;659
03.01.2023 01:30;647
03.01.2023 01:45;643
03.01.2023 02:00;641
03.01.2023 02:15;629
03.01.2023 02:30;623
03.01.2023 02:45;629
03.01.2023 03:00;628
03.01.2023 03:15;624
03.01.2023 03:30;614
03.01.2023 03:45;626
03.01.2023 04:00;629
03.01.2023 04:15;636
03.01.2023 04:30;652
03.01.2023 04:45;678
03.01.2023 05:00;702
03.01.2023 05:15;764
03.01.2023 05:30;836
03.01.2023 05:45;911
03.01.2023 06:00;1006
03.01.2023 06:15;1155
03.01.2023 06:30;1344
03.01.2023 06:45;1522
03.01.2023 07:00;1705
03.01.2023 07:15;1850
03.01.2023 07:30;1986
03.01.2023 07:45;2082
03.01.2023 08:00;2192
03.01.2023 08:15;2269
03.01.2023 08:30;2285
03.01.2023 08:45;2306
03.01.2023 09:00;2332
03.01.2023 09:15;2301
03.01.2023 09:30;2321
03.01.2023 09:45;2427
03.01.2023 10:00;2413
03.01.2023 10:15;2398
03.01.2023 10:30;2430
03.01.2023 10:45;2555
03.01.2023 11:00;2538
03.01.2023 11:15;2548
03.01.2023 11:30;2587
03.01.2023 11:45;2603
03.01.2023 12:00;2593
03.01.2023 12:15;2541
03.01.2023 12:30;2540
03.01.2023 12:45;2519
03.01.2023 13:00;2515
03.01.2023 13:15;2534
03.01.2023 13:30;2517
03.01.2023 13:45;2524
03.01.2023 14:00;2452
03.01.2023 14:15;2407
03.01.2023 14:30;2432
03.01.2023 14:45;2411
03.01.2023 15:00;2412
03.01.2023 15:15;2422
03.01.2023 15:30;2298
03.01.2023 15:45;2270
03.01.2023 16:00;2249
03.01.2023 16:15;2244
03.01.2023 16:30;2230
03.01.2023 16:45;2265
03.01.2023 17:00;2392
03.01.2023 17:15;2525
03.01.2023 17:30;2589
03.01.2023 17:45;2593
03.01.2023 18:00;2619
03.01.2023 18:15;2646
03.01.2023 18:30;2609
03.01.2023 18:45;2568
03.01.2023 19:00;2524
03.01.2023 19:15;2527
03.01.2023 19:30;2460
03.01.2023 19:45;2374
03.01.2023 20:00;2327
03.01.2023 20:15;2276
03.01.2023 20:30;2070
03.01.2023 20:45;1942
03.01.2023 21:00;1888
03.01.2023 21:15;1820
03.01.2023 21:30;1693
03.01.2023 21:45;1576
03.01.2023 22:00;1461
03.01.2023 22:15;1393
03.01.2023 22:30;1312
03.01.2023 22:45;1194
03.01.2023 23:00;1130
03.01.2023 23:15;1055
03.01.2023 23:30;986
03.01.2023 23:45;921
04.01.2023 00:00;878
04.01.2023 00:15;836
04.01.2023 00:30;786
04.01.2023 00:45;767
04.01.2023 01:00;729
04.01.2023 01:15;691
04.01.2023 01:30;665
04.01.2023 01:45;656
04.01.2023 02:00;649
04.01.2023 02:15;630
04.01.2023 02:30;622
04.01.2023 02:45;630
04.01.2023 03:00;626
04.01.2023 03:15;637
04.01.2023 03:30;643
04.01.2023 03:45;649
04.01.2023 04:00;655
04.01.2023 04:15;661
04.01.2023 04:30;660
04.01.2023 04:45;681
04.01.2023 05:00;721
04.01.2023 05:15;774
04.01.2023 05:30;819
04.01.2023 05:45;885
04.01.2023 06:00;988
04.01.2023 06:15;1145
04.01.2023 06:30;1355
04.01.2023 06:45;1547
04.01.2023 07:00;1714
04.01.2023 07:15;1882
04.01.2023 07:30;2006
04.01.2023 07:45;2115
04.01.2023 08:00;2233
04.01.2023 08:15;2327
04.01.2023 08:30;2412
04.01.2023 08:45;2442
04.01.2023 09:00;2431
04.01.2023 09:15;2367
04.01.2023 09:30;2374
04.01.2023 09:45;2379
04.01.2023 10:00;2445
04.01.2023 10:15;2479
04.01.2023 10:30;2498
04.01.2023 10:45;2483
04.01.2023 11:00;2551
04.01.2023 11:15;2596
04.01.2023 11:30;2684
04.01.2023 11:45;2629
04.01.2023 12:00;2593
04.01.2023 12:15;2582
04.01.2023 12:30;2609
04.01.2023 12:45;2650
04.01.2023 13:00;2671
04.01.2023 13:15;2668
04.01.2023 13:30;2667
04.01.2023 13:45;2652
04.01.2023 14:00;2573
04.01.2023 14:15;2555
04.01.2023 14:30;2563
04.01.2023 14:45;2594
04.01.2023 15:00;2585
04.01.2023 15:15;2467
04.01.2023 15:30;2457
04.01.2023 15:45;2453
04.01.2023 16:00;2403
04.01.2023 16:15;2413
04.01.2023 16:30;2420
04.01.2023 16:45;2494
04.01.2023 17:00;2539
04.01.2023 17:15;2582
04.01.2023 17:30;2635
04.01.2023 17:45;2633
04.01.2023 18:00;2641
04.01.2023 18:15;2614
04.01.2023 18:30;2589
04.01.2023 18:45;2529
04.01.2023 19:00;2526
04.01.2023 19:15;2458
04.01.2023 19:30;2414
04.01.2023 19:45;2329
04.01.2023 20:00;2323
04.01.2023 20:15;2254
04.01.2023 20:30;2039
04.01.2023 20:45;1906
04.01.2023 21:00;1817
04.01.2023 21:15;1736
04.01.2023 21:30;1641
04.01.2023 21:45;1533
04.01.2023 22:00;1436
04.01.2023 22:15;1339
04.01.2023 22:30;1261
04.01.2023 22:45;1181
04.01.2023 23:00;1106
04.01.2023 23:15;1040
04.01.2023 23:30;945
04.01.2023 23:45;867
05.01.2023 00:00;812
05.01.2023 00:15;793
05.01.2023 00:30;762
05.01.2023 00:45;709
05.01.2023 01:00;667
05.01.2023 01:15;638
05.01.2023 01:30;637
05.01.2023 01:45;626
05.01.2023 02:00;620
05.01.2023 02:15;616
05.01.2023 02:30;592
05.01.2023 02:45;587
05.01.2023 03:00;594
05.01.2023 03:15;590
05.01.2023 03:30;599
05.01.2023 03:45;596
05.01.2023 04:00;600
05.01.2023 04:15;607
05.01.2023 04:30;627
05.01.2023 04:45;651
05.01.2023 05:00;679
05.01.2023 05:15;736
05.01.2023 05:30;786
05.01.2023 05:45;869
05.01.2023 06:00;984
05.01.2023 06:15;1121
05.01.2023 06:30;1314
05.01.2023 06:45;1538
05.01.2023 07:00;1713
05.01.2023 07:15;1867
05.01.2023 07:30;2105
05.01.2023 07:45;2163
05.01.2023 08:00;2253
05.01.2023 08:15;2364
05.01.2023 08:30;2422
05.01.2023 08:45;2434
05.01.2023 09:00;2483
05.01.2023 09:15;2389
05.01.2023 09:30;2391
05.01.2023 09:45;2534
05.01.2023 10:00;2633
05.01.2023 10:15;2550
05.01.2023 10:30;2520
05.01.2023 10:45;2533
05.01.2023 11:00;2508
05.01.2023 11:15;2489
05.01.2023 11:30;2541
05.01.2023 11:45;2573
05.01.2023 12:00;2564
05.01.2023 12:15;2577
05.01.2023 12:30;2668
05.01.2023 12:45;2693
05.01.2023 13:00;2668
05.01.2023 13:15;2669
05.01.2023 13:30;2665
05.01.2023 13:45;2620
05.01.2023 14:00;2557
05.01.2023 14:15;2450
05.01.2023 14:30;2330
05.01.2023 14:45;2299
05.01.2023 15:00;2373
05.01.2023 15:15;2390
05.01.2023 15:30;2369
05.01.2023 15:45;2280
05.01.2023 16:00;2236
05.01.2023 16:15;2237
05.01.2023 16:30;2266
05.01.2023 16:45;2294
05.01.2023 17:00;2385
05.01.2023 17:15;2496
05.01.2023 17:30;2577
05.01.2023 17:45;2532
05.01.2023 18:00;2618
05.01.2023 18:15;2588
05.01.2023 18:30;2546
05.01.2023 18:45;2522
05.01.2023 19:00;2495
05.01.2023 19:15;2510
05.01.2023 19:30;2454
05.01.2023 19:45;2390
05.01.2023 20:00;2300
05.01.2023 20:15;2230
05.01.2023 20:30;2059
05.01.2023 20:45;1959
05.01.2023 21:00;1875
05.01.2023 21:15;1786
05.01.2023 21:30;1702
05.01.2023 21:45;1562
05.01.2023 22:00;1447
05.01.2023 22:15;1371
05.01.2023 22:30;1270
05.01.2023 22:45;1185
05.01.2023 23:00;1120
05.01.2023 23:15;1038
05.01.2023 23:30;961
05.01.2023 23:45;891
06.01.2023 00:00;836
06.01.2023 00:15;791
06.01.2023 00:30;759
06.01.2023 00:45;736
06.01.2023 01:00;699
06.01.2023 01:15;682
06.01.2023 01:30;655
06.01.2023 01:45;641
06.01.2023 02:00;627
06.01.2023 02:15;620
06.01.2023 02:30;604
06.01.2023 02:45;598
06.01.2023 03:00;620
06.01.2023 03:15;633
06.01.2023 03:30;638
06.01.2023 03:45;661
06.01.2023 04:00;669
06.01.2023 04:15;721
06.01.2023 04:30;763
06.01.2023 04:45;801
06.01.2023 05:00;803
06.01.2023 05:15;845
06.01.2023 05:30;897
06.01.2023 05:45;996
06.01.2023 06:00;1105
06.01.2023 06:15;1244
06.01.2023 06:30;1424
06.01.2023 06:45;1584
06.01.2023 07:00;1749
06.01.2023 07:15;1923
06.01.2023 07:30;2092
06.01.2023 07:45;2194
06.01.2023 08:00;2227
06.01.2023 08:15;2391
06.01.2023 08:30;2356
06.01.2023 08:45;2403
06.01.2023 09:00;2365
06.01.2023 09:15;2319
06.01.2023 09:30;2419
06.01.2023 09:45;2473
06.01.2023 10:00;2492
06.01.2023 10:15;2473
06.01.2023 10:30;2475
06.01.2023 10:45;2459
06.01.2023 11:00;2518
06.01.2023 11:15;2471
06.01.2023 11:30;2559
06.01.2023 11:45;2575
06.01.2023 12:00;2530
06.01.2023 12:15;2494
06.01.2023 12:30;2523
06.01.2023 12:45;2505
06.01.2023 13:00;2443
06.01.2023 13:15;2433
06.01.2023 13:30;2397
06.01.2023 13:45;2363
06.01.2023 14:00;2342
06.01.2023 14:15;2306
06.01.2023 14:30;2251
06.01.2023 14:45;2212
06.01.2023 15:00;2214
06.01.2023 15:15;2134
06.01.2023 15:30;2085
06.01.2023 15:45;2073
06.01.2023 16:00;2059
06.01.2023 16:15;2068
06.01.2023 16:30;2125
06.01.2023 16:45;2178
06.01.2023 17:00;2239
06.01.2023 17:15;2337
06.01.2023 17:30;2322
06.01.2023 17:45;2307
06.01.2023 18:00;2316
06.01.2023 18:15;2298
06.01.2023 18:30;2271
06.01.2023 18:45;2211
06.01.2023 19:00;2191
06.01.2023 19:15;2135
06.01.2023 19:30;2063
06.01.2023 19:45;1975
06.01.2023 20:00;1916
06.01.2023 20:15;1882
06.01.2023 20:30;1749
06.01.2023 20:45;1625
06.01.2023 21:00;1532
06.01.2023 21:15;1468
06.01.2023 21:30;1466
06.01.2023 21:45;1412
06.01.2023 22:00;1345
06.01.2023 22:15;1315
06.01.2023 22:30;1243
06.01.2023 22:45;1150
06.01.2023 23:00;1082
06.01.2023 23:15;1043
06.01.2023 23:30;978
06.01.2023 23:45;919
07.01.2023 00:00;882
07.01.2023 00:15;844
07.01.2023 00:30;787
07.01.2023 00:45;747
07.01.2023 01:00;720
07.01.2023 01:15;698
07.01.2023 01:30;670
07.01.2023 01:45;654
07.01.2023 02:00;633
07.01.2023 02:15;609
07.01.2023 02:30;586
07.01.2023 02:45;580
07.01.2023 03:00;572
07.01.2023 03:15;571
07.01.2023 03:30;568
07.01.2023 03:45;559
07.01.2023 04:00;565
07.01.2023 04:15;562
07.01.2023 04:30;563
07.01.2023 04:45;557
07.01.2023 05:00;568
07.01.2023 05:15;587
07.01.2023 05:30;594
07.01.2023 05:45;604
07.01.2023 06:00;618
07.01.2023 06:15;650
07.01.2023 06:30;685
07.01.2023 06:45;720
07.01.2023 07:00;750
07.01.2023 07:15;805
07.01.2023 07:30;836
07.01.2023 07:45;884
07.01.2023 08:00;955
07.01.2023 08:15;1009
07.01.2023 08:30;1019
07.01.2023 08:45;1064
07.01.2023 09:00;1108
07.01.2023 09:15;1166
07.01.2023 09:30;1206
07.01.2023 09:45;1254
07.01.2023 10:00;1304
07.01.2023 10:15;1345
07.01.2023 10:30;1359
07.01.2023 10:45;1357
07.01.2023 11:00;1353
07.01.2023 11:15;1397
07.01.2023 11:30;1419
07.01.2023 11:45;1430
07.01.2023 12:00;1424
07.01.2023 12:15;1429
07.01.2023 12:30;1411
07.01.2023 12:45;1397
07.01.2023 13:00;1390
07.01.2023 13:15;1360
07.01.2023 13:30;1345
07.01.2023 13:45;1327
07.01.2023 14:00;1321
07.01.2023 14:15;1297
07.01.2023 14:30;1269
07.01.2023 14:45;1277
07.01.2023 15:00;1290
07.01.2023 15:15;1273
07.01.2023 15:30;1283
07.01.2023 15:45;1280
07.01.2023 16:00;1278
07.01.2023 16:15;1271
07.01.2023 16:30;1250
07.01.2023 16:45;1272
07.01.2023 17:00;1323
07.01.2023 17:15;1412
07.01.2023 17:30;1546
07.01.2023 17:45;1603
07.01.2023 18:00;1638
07.01.2023 18:15;1668
07.01.2023 18:30;1660
07.01.2023 18:45;1629
07.01.2023 19:00;1612
07.01.2023 19:15;1578
07.01.2023 19:30;1533
07.01.2023 19:45;1478
07.01.2023 20:00;1438
07.01.2023 20:15;1384
07.01.2023 20:30;1285
07.01.2023 20:45;1207
07.01.2023 21:00;1147
07.01.2023 21:15;1101
07.01.2023 21:30;1050
07.01.2023 21:45;999
07.01.2023 22:00;976
07.01.2023 22:15;971
07.01.2023 22:30;940
07.01.2023 22:45;904
07.01.2023 23:00;874
07.01.2023 23:15;829
07.01.2023 23:30;799
07.01.2023 23:45;830
08.01.2023 00:00;795
08.01.2023 00:15;769
08.01.2023 00:30;736
08.01.2023 00:45;701
08.01.2023 01:00;635
08.01.2023 01:15;628
08.01.2023 01:30;603
08.01.2023 01:45;575
08.01.2023 02:00;566
08.01.2023 02:15;557
08.01.2023 02:30;546
08.01.2023 02:45;542
08.01.2023 03:00;533
08.01.2023 03:15;528
08.01.2023 03:30;522
08.01.2023 03:45;515
08.01.2023 04:00;513
08.01.2023 04:15;545
08.01.2023 04:30;577
08.01.2023 04:45;571
08.01.2023 05:00;577
08.01.2023 05:15;583
08.01.2023 05:30;587
08.01.2023 05:45;589
08.01.2023 06:00;597
08.01.2023 06:15;603
08.01.2023 06:30;610
08.01.2023 06:45;617
08.01.2023 07:00;627
08.01.2023 07:15;651
08.01.2023 07:30;678
08.01.2023 07:45;701
08.01.2023 08:00;742
08.01.2023 08:15;771
08.01.2023 08:30;790
08.01.2023 08:45;822
08.01.2023 09:00;869
08.01.2023 09:15;909
08.01.2023 09:30;952
08.01.2023 09:45;1003
08.01.2023 10:00;1044
08.01.2023 10:15;1089
08.01.2023 10:30;1144
08.01.2023 10:45;1202
08.01.2023 11:00;1208
08.01.2023 11:15;1235
08.01.2023 11:30;1275
08.01.2023 11:45;1306
08.01.2023 12:00;1334
08.01.2023 12:15;1341
08.01.2023 12:30;1336
08.01.2023 12:45;1317
08.01.2023 13:00;1297
08.01.2023 13:15;1200
08.01.2023 13:30;1165
08.01.2023 13:45;1160
08.01.2023 14:00;1142
08.01.2023 14:15;1128
08.01.2023 14:30;1121
08.01.2023 14:45;1110
08.01.2023 15:00;1116
08.01.2023 15:15;1126
08.01.2023 15:30;1099
08.01.2023 15:45;1088
08.01.2023 16:00;1140
08.01.2023 16:15;1143
08.01.2023 16:30;1175
08.01.2023 16:45;1209
08.01.2023 17:00;1277
08.01.2023 17:15;1346
08.01.2023 17:30;1404
08.01.2023 17:45;1481
08.01.2023 18:00;1546
08.01.2023 18:15;1576
08.01.2023 18:30;1557
08.01.2023 18:45;1553
08.01.2023 19:00;1539
08.01.2023 19:15;1514
08.01.2023 19:30;1499
08.01.2023 19:45;1460
08.01.2023 20:00;1412
08.01.2023 20:15;1369
08.01.2023 20:30;1318
08.01.2023 20:45;1235
08.01.2023 21:00;1189
08.01.2023 21:15;1147
08.01.2023 21:30;1117
08.01.2023 21:45;1080
08.01.2023 22:00;1064
08.01.2023 22:15;1056
08.01.2023 22:30;1023
08.01.2023 22:45;987
08.01.2023 23:00;952
08.01.2023 23:15;905
08.01.2023 23:30;853
08.01.2023 23:45;808
09.01.2023 00:00;762
09.01.2023 00:15;721
09.01.2023 00:30;694
09.01.2023 00:45;671
09.01.2023 01:00;648
09.01.2023 01:15;630
09.01.2023 01:30;618
09.01.2023 01:45;614
09.01.2023 02:00;611
09.01.2023 02:15;604
09.01.2023 02:30;589
09.01.2023 02:45;582
09.01.2023 03:00;575
09.01.2023 03:15;577
09.01.2023 03:30;581
09.01.2023 03:45;583
09.01.2023 04:00;596
09.01.2023 04:15;611
09.01.2023 04:30;649
09.01.2023 04:45;679
09.01.2023 05:00;709
09.01.2023 05:15;775
09.01.2023 05:30;824
09.01.2023 05:45;898
09.01.2023 06:00;995
09.01.2023 06:15;1168
09.01.2023 06:30;1391
09.01.2023 06:45;1548
09.01.2023 07:00;1748
09.01.2023 07:15;1933
09.01.2023 07:30;2083
09.01.2023 07:45;2208
09.01.2023 08:00;2304
09.01.2023 08:15;2412
09.01.2023 08:30;2475
09.01.2023 08:45;2500
09.01.2023 09:00;2502
09.01.2023 09:15;2476
09.01.2023 09:30;2506
09.01.2023 09:45;2589
09.01.2023 10:00;2578
09.01.2023 10:15;2633
09.01.2023 10:30;2595
09.01.2023 10:45;2629
09.01.2023 11:00;2592
09.01.2023 11:15;2592
09.01.2023 11:30;2607
09.01.2023 11:45;2578
09.01.2023 12:00;2579
09.01.2023 12:15;2573
09.01.2023 12:30;2637
09.01.2023 12:45;2661
09.01.2023 13:00;2626
09.01.2023 13:15;2621
09.01.2023 13:30;2713
09.01.2023 13:45;2787
09.01.2023 14:00;2678
09.01.2023 14:15;2565
09.01.2023 14:30;2644
09.01.2023 14:45;2644
09.01.2023 15:00;2602
09.01.2023 15:15;2479
09.01.2023 15:30;2482
09.01.2023 15:45;2438
09.01.2023 16:00;2440
09.01.2023 16:15;2451
09.01.2023 16:30;2440
09.01.2023 16:45;2389
09.01.2023 17:00;2489
09.01.2023 17:15;2607
09.01.2023 17:30;2713
09.01.2023 17:45;2736
09.01.2023 18:00;2768
09.01.2023 18:15;2804
09.01.2023 18:30;2778
09.01.2023 18:45;2723
09.01.2023 19:00;2725
09.01.2023 19:15;2697
09.01.2023 19:30;2647
09.01.2023 19:45;2565
09.01.2023 20:00;2469
09.01.2023 20:15;2386
09.01.2023 20:30;2198
09.01.2023 20:45;2057
09.01.2023 21:00;1966
09.01.2023 21:15;1882
09.01.2023 21:30;1813
09.01.2023 21:45;1697
09.01.2023 22:00;1584
09.01.2023 22:15;1496
09.01.2023 22:30;1410
09.01.2023 22:45;1280
09.01.2023 23:00;1180
09.01.2023 23:15;1124
09.01.2023 23:30;1079
09.01.2023 23:45;1011
10.01.2023 00:00;946
10.01.2023 00:15;898
10.01.2023 00:30;871
10.01.2023 00:45;846
10.01.2023 01:00;802
10.01.2023 01:15;790
10.01.2023 01:30;772
10.01.2023 01:45;766
10.01.2023 02:00;742
10.01.2023 02:15;723
10.01.2023 02:30;702
10.01.2023 02:45;710
10.01.2023 03:00;715
10.01.2023 03:15;707
10.01.2023 03:30;701
10.01.2023 03:45;706
10.01.2023 04:00;700
10.01.2023 04:15;722
10.01.2023 04:30;739
10.01.2023 04:45;779
10.01.2023 05:00;818
10.01.2023 05:15;871
10.01.2023 05:30;951
10.01.2023 05:45;1018
10.01.2023 06:00;1133
10.01.2023 06:15;1270
10.01.2023 06:30;1467
10.01.2023 06:45;1640
10.01.2023 07:00;1823
10.01.2023 07:15;2003
10.01.2023 07:30;2138
10.01.2023 07:45;2250
10.01.2023 08:00;2338
10.01.2023 08:15;2458
10.01.2023 08:30;2507
10.01.2023 08:45;2531
10.01.2023 09:00;2558
10.01.2023 09:15;2538
10.01.2023 09:30;2566
10.01.2023 09:45;2598
10.01.2023 10:00;2630
10.01.2023 10:15;2670
10.01.2023 10:30;2728
10.01.2023 10:45;2720
10.01.2023 11:00;2737
10.01.2023 11:15;2762
10.01.2023 11:30;2758
10.01.2023 11:45;2738
10.01.2023 12:00;2703
10.01.2023 12:15;2717
10.01.2023 12:30;2767
10.01.2023 12:45;2785
10.01.2023 13:00;2785
10.01.2023 13:15;2738
10.01.2023 13:30;2716
10.01.2023 13:45;2627
10.01.2023 14:00;2571
10.01.2023 14:15;2504
10.01.2023 14:30;2524
10.01.2023 14:45;2488
10.01.2023 15:00;2476
10.01.2023 15:15;2421
10.01.2023 15:30;2392
10.01.2023 15:45;2371
10.01.2023 16:00;2355
10.01.2023 16:15;2298
10.01.2023 16:30;2279
10.01.2023 16:45;2237
10.01.2023 17:00;2315
10.01.2023 17:15;2446
10.01.2023 17:30;2628
10.01.2023 17:45;2695
10.01.2023 18:00;2761
10.01.2023 18:15;2799
10.01.2023 18:30;2828
10.01.2023 18:45;2752
10.01.2023 19:00;2711
10.01.2023 19:15;2668
10.01.2023 19:30;2602
10.01.2023 19:45;2554
10.01.2023 20:00;2478
10.01.2023 20:15;2398
10.01.2023 20:30;2210
10.01.2023 20:45;2081
10.01.2023 21:00;2019
10.01.2023 21:15;1917
10.01.2023 21:30;1813
10.01.2023 21:45;1715
10.01.2023 22:00;1549
10.01.2023 22:15;1478
10.01.2023 22:30;1393
10.01.2023 22:45;1298
10.01.2023 23:00;1229
10.01.2023 23:15;1152
10.01.2023 23:30;1050
10.01.2023 23:45;983
11.01.2023 00:00;922
11.01.2023 00:15;880
11.01.2023 00:30;825
11.01.2023 00:45;807
11.01.2023 01:00;768
11.01.2023 01:15;758
11.01.2023 01:30;738
11.01.2023 01:45;720
11.01.2023 02:00;710
11.01.2023 02:15;688
11.01.2023 02:30;677
11.01.2023 02:45;677
11.01.2023 03:00;689
11.01.2023 03:15;701
11.01.2023 03:30;710
11.01.2023 03:45;717
11.01.2023 04:00;734
11.01.2023 04:15;739
11.01.2023 04:30;752
11.01.2023 04:45;773
11.01.2023 05:00;822
11.01.2023 05:15;867
11.01.2023 05:30;933
11.01.2023 05:45;1011
11.01.2023 06:00;1123
11.01.2023 06:15;1259
11.01.2023 06:30;1445
11.01.2023 06:45;1663
11.01.2023 07:00;1858
11.01.2023 07:15;2051
11.01.2023 07:30;2211
11.01.2023 07:45;2292
11.01.2023 08:00;2382
11.01.2023 08:15;2451
11.01.2023 08:30;2471
11.01.2023 08:45;2440
11.01.2023 09:00;2460
11.01.2023 09:15;2450
11.01.2023 09:30;2487
11.01.2023 09:45;2575
11.01.2023 10:00;2532
11.01.2023 10:15;2584
11.01.2023 10:30;2624
11.01.2023 10:45;2627
11.01.2023 11:00;2598
11.01.2023 11:15;2577
11.01.2023 11:30;2611
11.01.2023 11:45;2618
11.01.2023 12:00;2555
11.01.2023 12:15;2525
11.01.2023 12:30;2513
11.01.2023 12:45;2518
11.01.2023 13:00;2535
11.01.2023 13:15;2587
11.01.2023 13:30;2589
11.01.2023 13:45;2583
11.01.2023 14:00;2541
11.01.2023 14:15;2479
11.01.2023 14:30;2492
11.01.2023 14:45;2490
11.01.2023 15:00;2479
11.01.2023 15:15;2467
11.01.2023 15:30;2440
11.01.2023 15:45;2401
11.01.2023 16:00;2395
11.01.2023 16:15;2372
11.01.2023 16:30;2357
11.01.2023 16:45;2351
11.01.2023 17:00;2447
11.01.2023 17:15;2565
11.01.2023 17:30;2678
11.01.2023 17:45;2687
11.01.2023 18:00;2703
11.01.2023 18:15;2727
11.01.2023 18:30;2738
11.01.2023 18:45;2705
11.01.2023 19:00;2661
11.01.2023 19:15;2632
11.01.2023 19:30;2590
11.01.2023 19:45;2498
11.01.2023 20:00;2433
11.01.2023 20:15;2328
11.01.2023 20:30;2155
11.01.2023 20:45;2032
11.01.2023 21:00;1911
11.01.2023 21:15;1838
11.01.2023 21:30;1760
11.01.2023 21:45;1644
11.01.2023 22:00;1550
11.01.2023 22:15;1464
11.01.2023 22:30;1398
11.01.2023 22:45;1283
11.01.2023 23:00;1214
11.01.2023 23:15;1154
11.01.2023 23:30;1078
11.01.2023 23:45;996
12.01.2023 00:00;926
12.01.2023 00:15;876
12.01.2023 00:30;845
12.01.2023 00:45;813